EDT,Max TemperatureF,Mean TemperatureF,Min TemperatureF,Max Dew PointF,MeanDew PointF,Min DewpointF,Max Humidity, Mean Humidity, Min Humidity, Max Sea Level PressureIn, Mean Sea Level PressureIn, Min Sea Level PressureIn, Max VisibilityMiles, Mean VisibilityMiles, Min VisibilityMiles, Max Wind SpeedMPH, Mean Wind SpeedMPH, Max Gust SpeedMPH,PrecipitationIn, CloudCover, Events, WindDirDegrees
2013-6-1,82,74,66,67,63,60,88,71,54,29.85,29.78,29.70,10,10,10,18,13,26,0.18,5,Rain,211
2013-6-2,75,66,57,64,55,43,81,65,55,29.98,29.80,29.66,10,10,10,21,12,30,0.00,5,Rain,268
2013-6-3,70,58,45,46,40,35,76,52,31,30.09,30.04,29.99,10,10,10,13,7,,0.00,2,,338
2013-6-4,75,62,48,48,43,35,80,52,32,30.20,30.16,30.10,10,10,10,10,5,,0.00,0,,68
2013-6-5,75,63,51,46,42,34,65,47,31,30.18,30.09,29.99,10,10,10,10,6,,0.00,0,,63
2013-6-6,73,65,57,53,47,41,69,56,49,30.00,29.90,29.85,10,10,10,15,9,18,0.00,3,,32
2013-6-7,64,58,52,53,50,47,83,72,63,29.92,29.89,29.87,10,10,10,12,6,,0.00,7,,2
2013-6-8,75,67,59,54,51,49,75,62,43,30.08,29.98,29.91,10,10,10,8,3,,0.00,6,,116
2013-6-9,79,69,59,57,55,50,83,61,42,30.11,30.05,29.95,10,9,6,17,6,23,0.00,5,Rain,93
2013-6-10,73,68,62,66,63,57,88,83,73,29.97,29.83,29.74,10,7,1,8,4,,1.23,8,Rain,78
2013-6-11,84,75,66,64,63,62,88,72,49,29.90,29.84,29.77,10,10,8,14,7,17,0.01,6,,292
2013-6-12,80,72,64,67,64,59,84,74,62,29.92,29.81,29.66,10,8,1,16,4,,0.37,3,Rain,111
2013-6-13,81,72,64,64,59,53,88,69,40,29.91,29.70,29.52,10,8,2,20,11,26,1.04,5,Rain,356
2013-6-14,80,70,60,58,54,49,80,59,36,30.07,30.01,29.93,10,10,10,13,7,17,0.00,1,,348
2013-6-15,82,70,59,62,57,53,83,67,44,30.09,30.02,29.93,10,10,10,14,5,17,0.01,1,Rain,214
2013-6-16,84,75,64,64,61,48,84,65,34,29.90,29.85,29.79,10,9,2,17,10,24,0.29,4,Rain,254
2013-6-17,89,74,61,63,57,53,78,56,32,29.93,29.89,29.83,10,10,10,15,6,21,0.00,2,,242
2013-6-18,75,67,59,58,52,39,84,60,38,30.08,29.97,29.89,10,10,10,13,9,20,0.00,2,,31
2013-6-19,77,64,50,53,47,39,75,56,37,30.17,30.13,30.08,10,10,10,12,6,,0.00,0,,76
2013-6-20,84,66,51,57,52,47,89,59,36,30.22,30.19,30.16,10,10,8,10,3,,0.00,0,,141
2013-6-21,89,72,57,65,59,53,84,61,37,30.21,30.15,30.06,10,10,10,15,3,,0.00,1,,183
2013-6-22,88,79,70,73,66,58,83,70,57,30.09,30.04,30.00,10,10,2,15,8,20,0.18,2,Rain,207
2013-6-23,91,81,71,69,67,63,84,64,44,30.08,30.03,29.97,10,10,10,14,8,22,0.00,1,,219
2013-6-24,90,80,70,70,67,63,81,65,48,30.07,30.00,29.92,10,10,10,15,8,23,0.00,1,Rain,210
2013-6-25,89,79,70,71,67,63,85,72,53,29.99,29.90,29.82,10,10,7,18,10,24,0.55,3,Rain,248
2013-6-26,86,76,69,69,67,65,87,70,55,29.89,29.83,29.75,10,10,10,14,7,,0.16,4,Rain,207
2013-6-27,87,78,68,70,68,64,88,80,53,29.79,29.73,29.63,10,8,1,15,3,24,1.18,5,Rain,342
2013-6-28,81,73,66,65,63,58,88,76,54,29.66,29.59,29.52,10,10,4,16,5,44,0.23,4,Rain,314
2013-6-29,75,70,66,64,62,55,88,78,66,29.73,29.61,29.54,10,9,2,9,3,,0.71,7,Rain,317
2013-6-30,84,72,62,59,55,44,81,57,37,29.94,29.83,29.73,10,10,10,18,9,25,0.00,1,,38